SHERPA-AC1 (52763 NORAD) Tracking and Keplerian Element Data
This shows tracking and keplerian element data for the satellite.
Feedback or suggestion? Click here.
Element | Value |
Catalog | 52763 |
Name | SHERPA-AC1 |
Epoch Orbit | 712 |
Epoch Day | 192.84200466 |
Epoch Year | 2022 |
RAAN | 307.2038 |
Inclination | 97.5207 |
Eccentricity | 0.0013993 |
Argument of Perigee | 73.7832 |
Mean Anonmoly | 286.4937 |
Mean Motion | 15.12954535 |
Decay Rate | 1.968E-05 |
L1 | 1 52763U 22057AH 22192.84200466 .00001968 00000+0 11510-3 0 9999 |
L2 | 2 52763 97.5207 307.2038 0013993 73.7832 286.4937 15.12954535 7122 |
Live tracking and technical data element details for SHERPA-AC1 (NORAD 52763). SHERPA-AC1 can be tracked NOW for your location showing map with azimuth and elevation plus other details from your city location.
Track the satellite on the map from your city or location and see movement details for azimuth, elevation, latitude, longitude, range, height, and movement on the map or in text.
IsCatalogInMostPopularTable: catalog: 52763, numindb: 3
Update: records affected: 1
GetName: 52763 SHERPA-AC1
Hit Count: updated at: Sun, 14 Aug 2022 00:23:31 GMT